Terug naar catalogus

STARLINK-4338

ActiefCommunicatieSSO
NORAD 53055·PAYLOAD·🇺🇸 United States

Gelanceerd Jul 11, 2022 vanaf Vandenberg Space Force Base

Loading…

Volgende Passages (komende 24 uur)

TLE

VersSource: CelesTrak SupGP

Epoch: Sep 15, 2026, 00:46 UTC

1 53055C 22077N   26258.03243056 -.00110400  00000+0 -34273-2 0  2588
2 53055  97.2858  73.7486 0001967  93.7162 353.0235 15.33492804    16

Volg STARLINK-4338 in realtime met AllMySat

Download on the App Store